This is the latest recevied weather packets stored in our database for station/object AE5HO. If no packets are shown the sender has not sent any weather packets the latest 10 day(s).
| Time | Temp. | Humidity | Pressure | Rain* | Wind** | Luminosity | Snow |
|---|---|---|---|---|---|---|---|
| 1787836763 | 27.22° C | 81% | 1016.3 hPa | 0 mm | - | 27 W/m² | - |
| 1787836459 | 26.67° C | 81% | 1016.2 hPa | 0 mm | - | 26 W/m² | - |
| 1787836154 | 26.67° C | 83% | 1016.2 hPa | 0 mm | - | 23 W/m² | - |
| 1787835850 | 26.11° C | 84% | 1016.1 hPa | 0 mm | - | 22 W/m² | - |
| 1787835549 | 26.11° C | 85% | 1015.8 hPa | 0 mm | - | 21 W/m² | - |
| 1787835244 | 25.56° C | 86% | 1016 hPa | 0 mm | - | 18 W/m² | - |
| 1787834939 | 25.56° C | 86% | 1015.7 hPa | 0 mm | - | 16 W/m² | - |
| 1787834638 | 25.56° C | 86% | 1015.8 hPa | 0 mm | - | 15 W/m² | - |
| 1787834334 | 25.56° C | 86% | 1015.5 hPa | 0 mm | - | 12 W/m² | - |
| 1787834029 | 25° C | 86% | 1015.5 hPa | 0 mm | - | 11 W/m² | - |
| 1787833724 | 25° C | 86% | 1015.5 hPa | 0 mm | - | 9 W/m² | - |
| 1787833420 | 25° C | 86% | 1015.6 hPa | 0 mm | - | 6 W/m² | - |
| 1787833115 | 25° C | 86% | 1015.2 hPa | 0 mm | - | 4 W/m² | - |
| 1787832810 | 25° C | 86% | 1015.4 hPa | 0 mm | - | 1 W/m² | - |
| 1787832506 | 25° C | 86% | 1015.1 hPa | 0 mm | - | 0 W/m² | - |
| 1787832205 | 25° C | 86% | 1015.3 hPa | 0 mm | - | 0 W/m² | - |
| 1787831903 | 25° C | 86% | 1015 hPa | 0 mm | - | 0 W/m² | - |
| 1787831598 | 25° C | 86% | 1014.9 hPa | 0 mm | - | 0 W/m² | - |
| 1787831297 | 25° C | 85% | 1014.8 hPa | 0 mm | - | 0 W/m² | - |
| 1787830994 | 25.56° C | 85% | 1015.2 hPa | 0 mm | - | 0 W/m² | - |
| 1787830693 | 25.56° C | 85% | 1014.8 hPa | 0 mm | - | 0 W/m² | - |
| 1787830392 | 25.56° C | 85% | 1014.8 hPa | 0 mm | - | 0 W/m² | - |
| 1787830087 | 25.56° C | 85% | 1014.9 hPa | 0 mm | - | 0 W/m² | - |
| 1787829786 | 25.56° C | 85% | 1014.9 hPa | 0 mm | - | 0 W/m² | - |
| 1787829481 | 25.56° C | 85% | 1015 hPa | 0 mm | - | 0 W/m² | - |
* Rain latest hour (hover to see other rain measurements)
** Current wind speed in m/s (hover to see current wind gust speed)